This demonstration page uses our WeatherBlox Daily Observations layout. Learn more.

Left ArrowRight Arrow

39.12711, -84.51439

Hourly Observations for September 21, 2018

Temp ( °F °C ) Dew Point ( °F °C ) Humidity (%) Winds ( mph kmh ) Pressure ( in mb ) Visibility ( mi km ) Precip ( " mm )
12:53 am 00:53 Clear 74 23.3 72 22.2 94 94 SSW 3 6 30.00 1016 10 16 0.00 0.00
1:53 am 01:53 Clear 72 22.2 71 21.7 97 97 SW 5 7 30.01 1016 9 14 0.00 0.00
2:53 am 02:53 Clear 71 21.7 71 21.7 100 100 Calm 30.01 1016 7 11 0.00 0.00
3:53 am 03:53 Clear 71 21.7 71 21.7 100 100 Calm 30.01 1016 7 11 0.00 0.00
4:53 am 04:53 Clear 71 21.7 71 21.7 100 100 Calm 30.00 1016 8 13 0.00 0.00
5:53 am 05:53 Clear 70 21.1 70 21.1 100 100 Calm 30.01 1016 8 13 0.00 0.00
6:53 am 06:53 Clear 74 23.3 70 21.1 88 88 SSW 7 11 30.01 1016 10 16 0.00 0.00
7:53 am 07:53 Sunny 74 23.3 70 21.1 88 88 SSW 8 13 30.01 1016 10 16 0.00 0.00
8:53 am 08:53 Sunny 77 25 71 21.7 82 82 SSW 10 17 30.01 1016 10 16 0.00 0.00
9:53 am 09:53 Mostly Sunny 80 26.7 71 21.7 74 74 SSW 14 22 30.02 1017 10 16 0.00 0.00
10:53 am 10:53 Mostly Cloudy 79 26.1 71 21.7 77 77 SSW 14 22 30.03 1017 10 16 0.00 0.00
11:53 am 11:53 Mostly Sunny 82 27.8 73 22.8 74 74 S 12 19 30.02 1017 10 16 0.00 0.00
12:53 pm 12:53 Sunny 85 29.4 74 23.3 70 70 SSW 17 28 30.00 1016 10 16 0.00 0.00
1:53 pm 13:53 Mostly Cloudy 85 29.4 74 23.3 70 70 SSW 18 30 29.99 1016 10 16 0.00 0.00
2:53 pm 14:53 Mostly Sunny 86 30 74 23.3 67 67 SSW 16 26 29.97 1015 10 16 0.00 0.00
3:53 pm 15:53 Partly Cloudy 83 28.3 74 23.3 74 74 SSW 13 20 29.94 1014 10 16 0.00 0.00
4:17 pm 16:17 Partly Cloudy with Nearby Thunderstorms 83 28.3 74 23.3 74 74 SSW 12 19 29.91 1013 10 16 0.00 0.00
4:53 pm 16:53 Mostly Sunny 83 28.3 74 23.3 74 74 SSW 14 22 29.93 1014 10 16 0.00 0.00
5:53 pm 17:53 Partly Cloudy 77 25 68 20 74 74 SSW 9 15 29.97 1015 10 16 0.00 0.00
6:53 pm 18:53 Mostly Sunny 76 24.4 70 21.1 82 82 VRB 5 7 29.99 1016 10 16 0.00 0.00
7:53 pm 19:53 Mostly Clear 74 23.3 71 21.7 91 91 SSW 7 11 30.02 1017 10 16 0.00 0.00
8:53 pm 20:53 Mostly Clear 74 23.3 71 21.7 91 91 WSW 8 13 30.04 1017 10 16 0.00 0.00
9:53 pm 21:53 Mostly Clear 73 22.8 71 21.7 94 94 S 3 6 30.06 1018 10 16 0.00 0.00
10:53 pm 22:53 Clear 72 22.2 71 21.7 97 97 Calm 30.07 1018 10 16 0.00 0.00
11:53 pm 23:53 Partly Cloudy 71 21.7 71 21.7 100 100 Calm 30.09 1019 10 16 0.00 0.00

Powered by AerisWeather